Theta_e
303 300 301 299 301 302 303 302 303 303 303 303 303 304 304 304 304 304 303 303 303 301 300 302 303 304 304 306 307 317 321 321 322 324 325 326 325 325 326 326 326 326 328 330
302 299 302 302 302 302 302 305 304 304 304 304 304 306 305 305 305 304 304 302 302 301 300 302 303 304 305 306 310 320 321 322 323 324 326 326 327 326 326 327 327 327 327 330
305 303 305 306 307 306 305 304 304 303 305 305 305 306 305 305 308 306 305 302 300 300 300 302 304 305 307 313 320 320 320 320 323 326 326 327 327 327 327 327 328 328 327 329
304 305 306 306 307 306 308 305 306 307 309 312 310 313 309 310 310 308 307 305 306 306 303 305 307 312 315 320 320 322 324 323 324 327 327 327 326 325 326 327 329 328 329 330
305 307 309 310 310 308 309 307 309 310 314 314 313 313 309 311 312 311 310 308 310 310 308 305 309 316 318 320 321 322 322 322 323 325 327 326 324 325 326 328 329 329 330 330
309 307 309 308 309 308 308 310 311 313 314 310 310 313 309 313 313 311 313 315 316 314 311 314 315 315 315 314 314 315 317 320 322 324 324 324 324 326 327 329 329 329 329 329
307 310 308 308 311 313 312 314 310 309 307 311 314 313 314 312 309 312 317 317 315 315 315 314 314 313 313 310 309 313 315 320 322 324 324 325 325 326 326 326 327 326 326 328
307 309 309 309 312 316 316 315 317 312 318 317 315 316 317 311 308 307 308 313 312 310 312 309 308 307 306 305 306 307 318 323 324 324 325 324 325 324 324 325 325 325 324 325
311 310 309 311 313 314 316 320 317 318 317 315 313 314 314 313 309 306 307 310 309 308 307 306 303 302 302 302 301 302 305 307 311 312 319 324 324 324 324 324 322 322 323 322
311 315 310 313 313 313 316 315 316 310 320 319 313 314 317 312 308 308 306 307 307 305 303 302 300 299 299 299 299 299 300 301 303 304 308 309 314 318 323 322 323 323 323 323
310 311 310 309 312 313 311 310 312 312 315 317 314 312 315 312 311 311 308 306 303 301 299 298 298 297 297 297 298 298 298 299 299 300 300 304 303 303 306 306 308 311 314 319
309 307 309 310 307 307 310 310 308 307 312 310 311 317 313 312 311 311 305 302 299 297 297 296 296 296 296 296 296 296 296 297 297 298 298 298 299 299 300 300 301 303 305 307
308 305 304 303 303 305 309 308 308 308 305 308 311 314 308 308 311 305 301 297 296 296 295 295 295 294 294 295 295 295 296 296 296 296 297 297 297 297 297 297 298 298 299 299
307 305 306 305 306 307 310 308 306 306 303 309 308 311 309 308 307 304 300 297 296 295 295 295 293 293 294 294 294 294 294 295 295 295 296 296 295 295 295 295 296 296 297 297
306 307 304 305 305 307 308 307 307 303 305 307 306 308 308 306 305 303 300 298 297 296 295 294 294 292 293 294 293 293 293 294 294 294 294 293 293 293 293 294 294 294 294 294
303 307 306 306 306 304 305 304 304 307 308 307 307 308 304 304 303 303 301 298 298 297 296 295 294 293 293 294 293 293 293 293 293 292 292 292 292 292 292 292 292 292 292 292
304 304 304 304 303 301 301 302 304 307 306 307 309 306 303 304 304 303 301 299 298 296 296 296 294 293 293 293 292 292 292 292 293 291 291 290 290 290 290 291 291 290 290 290
305 303 303 304 299 297 299 304 304 305 305 304 306 305 303 304 303 302 301 300 296 295 296 294 293 294 293 292 291 291 291 291 290 290 289 289 289 289 289 289 289 289 289 289
301 302 305 304 301 299 301 302 305 305 303 302 306 304 303 302 301 301 295 295 294 294 294 294 294 294 292 291 290 290 290 290 289 289 289 289 288 288 288 288 288 288 288 288
300 300 303 302 304 301 297 302 303 301 300 300 303 303 302 300 304 301 293 293 294 295 294 295 294 293 291 290 290 290 289 289 289 289 289 288 288 288 288 288 287 287 287 288
304 303 304 304 303 301 298 303 301 301 298 301 302 302 300 301 300 295 292 294 294 294 294 294 292 291 291 291 290 289 289 289 289 289 289 288 288 288 287 287 287 287 287 287
303 302 302 301 304 302 300 302 303 299 300 302 301 301 300 299 294 293 292 293 292 292 293 292 291 291 291 291 291 290 289 289 289 289 289 288 288 287 287 286 286 286 286 287
301 300 301 301 302 299 299 301 300 297 301 303 301 300 299 297 294 293 292 291 291 292 292 292 291 291 291 291 290 290 289 289 288 288 288 287 287 287 286 286 286 286 286 287
299 297 301 303 302 300 300 299 298 298 299 300 300 299 297 297 294 293 291 291 290 291 291 291 291 290 291 291 290 290 289 288 288 288 287 286 286 286 286 286 286 286 286 286
299 298 300 300 300 300 299 297 297 298 298 299 298 298 297 296 294 292 291 290 290 291 291 291 291 290 290 291 290 289 289 288 287 286 286 285 285 285 285 286 286 286 286 286
298 300 302 304 300 300 300 299 299 298 298 297 298 296 295 294 293 291 290 291 291 291 291 291 291 291 291 290 288 288 288 287 287 286 286 286 286 286 285 285 285 285 286 286
Wind_Speed
3 5 2 4 4 2 1 4 9 12 12 6 14 19 23 21 12 15 17 16 16 12 12 22 28 28 26 23 21 21 19 22 22 23 19 21 24 24 27 33 32 31 34 33
3 1 6 4 4 5 4 10 12 12 4 4 13 20 22 18 13 8 13 10 13 9 6 11 23 28 25 28 22 20 20 22 23 24 26 20 16 21 27 28 33 36 38 39
3 5 3 4 6 8 8 8 9 9 6 10 11 8 3 3 5 5 6 7 8 10 13 10 11 22 25 25 20 18 19 20 23 23 23 19 22 25 27 32 34 37 40 42
4 2 1 4 9 7 7 7 14 14 8 5 3 7 1 6 6 6 10 9 10 10 9 9 7 12 19 22 14 16 15 12 17 22 24 22 17 20 27 33 33 34 37 39
6 4 4 6 6 9 9 5 5 10 8 6 3 4 5 8 8 17 15 12 11 10 7 7 6 9 5 3 4 5 9 11 17 15 15 16 20 27 31 30 26 27 31 35
10 1 3 5 3 12 9 10 11 5 2 2 2 4 3 9 12 15 10 6 11 4 2 5 14 15 17 15 14 13 12 15 16 16 15 15 15 17 18 21 20 22 26 31
4 4 3 4 4 4 5 4 3 4 3 4 4 3 3 13 14 15 11 8 10 11 11 13 15 13 16 21 24 25 14 11 15 13 12 14 6 7 15 14 15 15 9 17
3 6 4 5 5 2 2 1 2 4 2 4 2 5 3 9 13 15 16 14 14 17 12 15 15 15 19 21 32 23 14 12 9 3 13 11 6 8 12 11 13 15 11 9
3 5 4 5 4 3 1 2 1 3 3 2 3 2 2 13 12 15 16 15 15 18 15 15 14 22 24 29 22 26 26 25 31 24 15 6 8 8 9 6 3 1 2 3
3 6 4 3 3 3 3 3 2 2 4 4 4 3 7 13 14 11 12 14 14 12 12 13 14 18 18 20 19 23 26 32 32 31 28 25 21 15 9 7 6 3 3 8
1 2 7 3 1 1 3 3 3 1 2 1 3 4 7 9 8 11 11 8 8 7 8 7 10 14 15 16 21 24 28 28 29 27 25 27 24 22 20 20 19 16 11 10
4 2 4 4 5 2 2 2 1 3 3 1 2 3 4 3 6 8 6 5 4 5 5 5 9 12 15 17 19 22 26 29 27 24 24 24 23 23 23 21 20 18 18 15
3 1 4 7 6 4 3 3 1 2 0 2 3 3 0 3 3 4 3 3 4 6 7 7 9 10 14 17 20 22 26 26 25 25 25 25 26 26 25 24 22 21 21 20
3 2 5 5 6 2 6 6 2 2 1 2 4 3 4 3 3 4 2 2 4 5 5 5 6 8 15 17 18 22 22 22 22 23 25 25 26 25 24 23 23 23 22 22
1 3 3 6 8 4 5 7 4 2 4 3 3 6 6 7 7 7 5 3 2 3 5 6 6 7 13 16 20 21 21 22 20 20 22 23 23 23 23 23 23 23 22 22
3 3 3 5 1 3 6 8 7 5 3 4 2 5 7 5 4 5 7 5 3 2 4 4 5 8 13 20 22 20 19 19 19 24 24 23 24 25 24 24 24 25 26 27
3 3 5 5 5 7 5 6 7 4 4 5 5 8 5 5 8 7 7 6 5 4 3 3 3 5 10 12 13 14 14 12 10 13 14 17 20 20 20 19 18 19 20 21
1 1 1 4 8 4 4 1 2 5 7 9 4 5 6 6 5 5 5 6 7 5 4 1 3 5 7 9 10 10 7 6 9 15 19 20 20 18 20 19 19 20 20 21
4 3 1 1 2 8 1 4 5 6 7 9 13 7 4 3 2 5 6 5 6 5 3 1 0 3 4 6 7 4 7 11 14 18 20 21 22 20 22 22 23 24 23 25
4 3 3 0 2 5 5 3 4 3 5 3 9 8 8 6 2 5 6 6 6 5 2 2 3 3 3 6 9 9 11 14 18 18 18 21 24 25 26 28 28 29 28 28
2 1 4 4 4 8 6 4 4 2 5 1 5 7 9 6 5 3 7 5 5 4 6 6 6 4 2 6 9 10 11 15 18 23 25 27 29 25 23 27 26 26 26 27
7 6 4 2 3 8 7 4 6 5 2 2 5 6 9 5 6 6 7 7 7 8 9 8 6 1 5 8 12 18 22 22 21 26 29 32 31 27 27 28 31 30 26 25
3 6 4 9 7 4 7 7 6 5 4 3 3 5 8 8 8 8 7 7 8 10 8 5 1 1 6 13 16 15 17 21 23 27 28 26 24 24 23 23 23 22 22 22
5 4 4 1 5 11 13 10 6 7 8 5 6 7 8 8 8 8 6 6 6 8 7 5 1 6 11 13 14 13 15 17 17 20 20 20 19 19 20 20 19 20 21 23
5 6 5 7 11 10 11 9 8 9 8 7 6 8 10 8 7 7 6 7 9 9 6 2 3 6 9 12 13 11 11 12 16 16 18 16 17 18 20 21 21 22 23 24
8 9 6 8 7 5 7 3 2 4 7 11 9 6 6 10 9 7 6 9 9 6 1 5 7 8 9 10 11 11 9 10 12 17 17 17 18 18 20 21 25 22 24 28
Wind_Direction
24 48 283 223 207 205 260 241 269 263 268 278 267 266 278 287 277 272 263 252 254 246 245 243 254 258 262 260 255 260 251 251 250 242 230 235 240 248 254 252 247 245 243 232
6 247 236 210 208 221 221 274 274 287 268 201 272 278 283 282 276 272 282 254 252 261 252 241 250 254 256 259 242 243 248 255 252 247 242 232 241 249 261 263 260 260 246 232
203 235 155 180 271 267 242 236 254 239 306 256 276 277 281 302 302 324 346 294 272 247 256 254 239 249 251 244 222 234 247 255 256 253 245 240 252 259 259 263 257 248 235 227
243 226 200 237 259 216 283 223 244 264 289 309 48 296 318 335 297 335 321 308 290 281 246 249 255 245 224 220 223 224 237 244 251 245 243 246 254 267 268 266 253 242 229 216
255 199 234 271 256 168 241 239 247 273 261 302 166 259 282 348 325 326 320 301 291 270 258 256 243 256 215 53 347 289 270 260 244 244 236 251 266 274 279 252 232 217 215 217
256 73 229 229 258 210 252 291 281 270 280 292 237 223 305 352 320 313 306 334 342 18 73 71 70 56 47 25 5 331 288 268 243 238 244 252 259 286 307 208 193 198 206 213
314 206 223 185 264 212 223 298 332 352 4 238 213 187 280 343 338 337 4 354 25 46 59 56 39 35 38 21 7 347 287 261 227 226 232 229 227 73 57 95 125 119 125 150
0 332 193 174 209 246 201 205 251 271 310 289 15 320 341 8 350 354 11 24 38 35 43 51 37 35 40 28 19 358 43 165 156 82 215 185 173 129 104 89 85 82 71 78
342 282 275 195 171 182 181 262 178 276 241 347 292 303 240 351 7 9 18 31 37 36 28 36 33 40 33 33 6 23 36 56 65 52 60 152 158 106 95 112 187 233 317 333
290 297 264 298 153 235 218 285 335 333 339 323 328 339 342 349 346 358 20 24 36 40 32 30 24 31 33 28 17 30 42 48 52 52 51 52 56 62 67 62 55 42 303 305
237 166 289 335 8 318 345 358 289 312 165 332 319 319 347 344 352 13 34 42 28 38 35 24 20 30 30 25 25 29 38 44 47 50 50 53 45 45 51 47 39 31 18 4
193 172 282 273 322 316 212 356 50 106 347 82 144 296 212 266 313 349 21 33 30 35 27 22 19 26 27 26 27 29 35 38 37 41 46 45 43 34 35 29 24 18 14 8
178 229 328 341 345 354 49 314 269 252 84 233 140 252 22 266 318 41 113 56 12 15 15 13 28 26 25 25 28 33 35 34 36 35 37 38 36 29 22 17 11 6 359 353
146 190 178 193 221 197 303 316 26 115 72 182 226 243 221 200 232 241 238 21 23 14 11 2 9 11 28 29 29 31 33 33 34 35 34 31 24 18 13 9 7 3 358 352
60 263 193 254 244 222 239 259 307 184 222 193 311 211 238 213 212 220 218 211 256 349 9 13 5 4 17 20 21 25 30 32 33 34 31 24 19 13 10 9 3 359 356 351
1 287 342 283 69 285 266 239 239 238 220 240 180 264 216 208 192 211 220 208 234 350 345 339 1 10 10 16 12 11 15 21 23 20 18 14 12 11 9 0 356 352 348 344
21 359 7 276 335 304 298 239 190 198 205 168 193 228 171 187 205 217 219 214 219 226 270 342 4 7 11 11 359 359 6 9 18 12 13 12 11 7 0 356 351 346 341 337
251 42 143 278 340 4 235 219 192 228 245 220 249 225 204 214 202 210 198 194 206 219 238 284 32 11 9 357 355 342 343 5 14 15 15 11 8 358 354 353 351 342 340 336
189 129 294 296 241 281 329 184 179 179 281 210 221 212 195 124 82 283 204 184 191 199 197 178 333 328 332 342 353 358 20 24 19 15 10 6 1 356 354 353 346 341 336 332
83 87 134 302 307 247 229 193 181 152 292 254 196 185 165 139 175 254 178 173 189 190 170 196 235 261 298 9 28 27 25 19 13 3 357 357 358 358 355 348 341 340 340 332
217 200 198 204 253 285 236 191 146 130 234 227 198 174 157 187 195 181 151 172 174 189 197 202 208 212 25 23 28 24 24 14 0 358 353 352 353 351 344 338 336 331 328 323
181 161 207 133 230 283 153 87 174 223 281 233 194 186 185 187 154 164 185 187 188 192 191 194 197 202 22 14 9 14 12 359 352 350 348 345 343 341 339 337 331 329 324 313
263 199 190 191 216 241 209 210 212 162 202 252 203 204 191 182 196 188 197 197 194 190 193 194 199 359 25 19 12 3 356 352 349 344 341 335 331 324 321 315 311 309 311 309
247 178 225 4 262 239 234 253 236 211 218 199 215 196 180 194 191 195 189 187 184 190 194 201 235 24 15 9 3 353 346 342 334 326 320 322 312 311 312 312 314 312 315 314
212 148 210 264 283 279 261 235 248 254 225 217 201 197 206 188 199 185 190 191 192 189 189 175 44 19 3 355 347 338 331 331 328 320 318 315 314 314 316 317 319 317 312 316
185 214 196 239 218 223 268 266 246 236 237 232 206 205 197 184 189 176 186 186 182 181 152 23 9 353 340 329 323 324 324 332 332 324 320 316 316 317 321 321 320 318 316 322